Погода в Бору

Россия / Костромская область     58°16′05″N   43°22′20″E
темп.,
°C
ветер,
м/с
пор.,
м/с
влажн.,
%
обл.,
%
осадки,
мм/ч
давл.,
гПа
погр.,
м
8 марта, пн
пн800:00−7зсз2995100 0.9 990548
03:00−11зсз2595100 0.9 991104
06:00−14з369767 0.0 99196
09:00−11зсз359576 0.0 993241
12:00−7ссз239196 0.1 996568
15:00−8с469097 0.6 998671
18:00−11с399398 0.2 1001418
21:00−12с499395 0.3 1005541
9 марта, вт
вт900:00−16ссз389594 0.1 1007210
03:00−19ссз379777 0.1 1010179
06:00−23ссз389827 0.0 1011142
09:00−21с379522 0.0 1013265
12:00−16с359278 0.0 1015458
15:00−15с469089 0.1 1016605
18:00−18с3894100 0.1 1017327
21:00−21с31095100 0.1 1020371
10 марта, ср
ср1000:00−26с389775 0.0 1022183
03:00−29с389738 0.0 1023140
06:00−30ссз36970 0.0 1025116
09:00−25ссз25950 0.0 1026227
12:00−18ссз24890 0.0 1025418
15:00−15сз358748 0.0 1025636
18:00−18сз2495100 0.0 102581
21:00−22сз239884 0.0 102747
11 марта, чт
чт1100:00−23сз23985 0.0 102751
03:00−23сз23986 0.0 102852
06:00−22зсз35980 0.0 1028106
09:00−16сз36949 0.0 1029256
12:00−10сз36895 0.0 1028374
15:00−7зсз35822 0.0 1028606
18:00−11з33920 0.0 102868
21:00−15з23950 0.0 102954
12 марта, пт
пт1200:00−17з33970 0.0 102977
03:00−18зюз36970 0.0 1028117
06:00−20юз36980 0.0 1028123
09:00−14юз38901 0.0 1028290
12:00−9юз498158 0.0 1027574
15:00−8юз488173 0.0 1026690
18:00−11ююз389022 0.0 1026186
21:00−14ююз4129211 0.0 1026311